Santiago de Cuba, Cuba

10:29 AM CST on January 17, 2019 (GMT -0500)
Antonio Maceo International

Weather History for MUCU - January, 2019

Change the Weather History Date:

Friday, January 11, 2019

  Actual Average Record
Temperature  
Mean Temperature 76 °F -  
Max Temperature 82 °F 80 °F 86 °F (2003)
Min Temperature 69 °F 67 °F 66 °F (2001)
Cooling Degree Days 10    
Growing Degree Days 26 (Base 50)    
Moisture  
Dew Point 63 °F    
Average Humidity 68    
Maximum Humidity 88    
Minimum Humidity 36    
Precipitation  
Precipitation 0.00 in - - ()
Sea Level Pressure  
Sea Level Pressure 30.01 in    
Wind  
Wind Speed 6 mph ()    
Max Wind Speed 10 mph    
Max Gust Speed -    
Visibility 5.6 miles    
Events      
Averages and records for this station are not official NWS values.
T = Trace of Precipitation, MM = Missing Value Source: Averaged Metar Reports

Daily Weather History Graph

Daily Weather History Graph

Search for Another Location

Airport or City:

Astronomy

Jan. 11, 2019 Rise Set
Actual Time 6:40 AM CST 5:41 PM CST
Civil Twilight 6:17 AM CST 6:05 PM CST
Nautical Twilight 5:49 AM CST 6:32 PM CST
Astronomical Twilight 5:22 AM CST 6:59 PM CST
Moon 10:26 AM CST (1/11) 10:28 PM CST (1/11)
Length of Visible Light 11h 48m
Length of Day
11h 01m
Waxing Crescent, 26% of the Moon is Illuminated
Jan 11
Waxing Crescent
Jan 14
First Quarter
Jan 21
Full
Jan 27
Last Quarter
Feb 4
New

Hourly Weather History & Observations

Time (CST) Temp. Heat Index Dew Point Humidity Pressure Visibility Wind Dir Wind Speed Gust Speed Precip Events Conditions
12:50 AM 69.8 °F - 66.2 °F 88% 29.98 in 5.6 mi North 5.8 mph - N/A   Scattered Clouds
1:00 AM 70 °F - 66 °F 82% 29.99 in 5 mi North 4.5 mph - -   Haze
1:51 AM 69.8 °F - 66.2 °F 88% 29.98 in 5.6 mi NW 5.8 mph - N/A   Partly Cloudy
2:50 AM 69.8 °F - 64.4 °F 83% 29.98 in 5.6 mi North 5.8 mph - N/A   Partly Cloudy
3:52 AM 69.8 °F - 64.4 °F 83% 29.95 in 5.6 mi North 6.9 mph - N/A   Scattered Clouds
4:51 AM 69.8 °F - 64.4 °F 83% 29.95 in 5.6 mi North 6.9 mph - N/A   Scattered Clouds
5:51 AM 69.8 °F - 64.4 °F 83% 29.98 in 5.6 mi North 9.2 mph - N/A   Scattered Clouds
6:52 AM 69.8 °F - 64.4 °F 83% 29.98 in 5.6 mi North 8.1 mph - N/A   Scattered Clouds
7:00 AM 70 °F - 64 °F 77% 30.01 in 5 mi North 8.9 mph - -   Haze
7:50 AM 71.6 °F - 64.4 °F 78% 30.01 in 5.6 mi North 8.1 mph - N/A   Scattered Clouds
8:51 AM 71.6 °F - 64.4 °F 78% 30.04 in 5.6 mi North 8.1 mph - N/A   Scattered Clouds
9:51 AM 78.8 °F - 64.4 °F 61% 30.04 in 5.6 mi North 6.9 mph - N/A   Scattered Clouds
10:00 AM 80 °F - 65 °F 51% 30.07 in 6 mi North 6.7 mph - -   Haze
10:52 AM 82.4 °F 82.9 °F 60.8 °F 48% 30.04 in 5.6 mi North 6.9 mph - N/A   Scattered Clouds
11:51 AM 82.4 °F 82.9 °F 60.8 °F 48% 30.01 in 5.6 mi Variable 4.6 mph - N/A   Scattered Clouds
12:52 PM 82.4 °F 82.9 °F 60.8 °F 48% 29.98 in 5.6 mi SSE 9.2 mph - N/A   Scattered Clouds
1:00 PM 82 °F - 60 °F 36% 30.01 in 6 mi SSE 8.9 mph - -   Haze
1:50 PM 80.6 °F 81.5 °F 60.8 °F 51% 29.98 in 5.6 mi SSE 10.4 mph - N/A   Scattered Clouds
2:53 PM 78.8 °F - 64.4 °F 61% 29.98 in 5.6 mi SSE 10.4 mph - N/A   Scattered Clouds
3:53 PM 80.6 °F 82.7 °F 66.2 °F 61% 29.98 in 5.6 mi SSE 10.4 mph - N/A   Scattered Clouds
4:00 PM 80 °F - 65 °F 51% 30.00 in 6 mi SE 8.9 mph - -   Haze
4:52 PM 75.2 °F - 64.4 °F 69% 29.98 in 5.6 mi NE 6.9 mph - N/A   Scattered Clouds
5:52 PM 71.6 °F - 64.4 °F 78% 30.01 in 5.6 mi NE 6.9 mph - N/A   Scattered Clouds
6:55 PM 73.4 °F - 62.6 °F 69% 30.01 in 5.6 mi North 5.8 mph - N/A   Scattered Clouds
7:00 PM 73 °F - 63 °F 64% 30.04 in 6 mi North 6.7 mph - -   Haze
7:53 PM 71.6 °F - 62.6 °F 73% 30.04 in 5.6 mi North 5.8 mph - N/A   Scattered Clouds
8:52 PM 71.6 °F - 60.8 °F 69% 30.04 in 5.6 mi North 5.8 mph - N/A   Scattered Clouds
9:54 PM 71.6 °F - 60.8 °F 69% 30.04 in 5.6 mi North 8.1 mph - N/A   Partly Cloudy
10:00 PM 72 °F - 61 °F 59% 30.07 in 6 mi North 6.7 mph - -   Haze
10:51 PM 71.6 °F - 60.8 °F 69% 30.04 in 5.6 mi North 8.1 mph - N/A   Partly Cloudy
11:52 PM 69.8 °F - 60.8 °F 73% 30.04 in 5.6 mi North 6.9 mph - N/A   Partly Cloudy